Total_Precipitation_Accumulation
1.10 1.43 1.50 1.54 1.73 1.92 2.10 2.00 2.04 2.24 2.39 2.63 2.66 2.82 3.15 3.54 3.76 3.95 4.07 4.07 4.00 3.99 3.82 3.70 3.74 3.56 3.38 3.19 3.03 2.91 2.79 2.49 2.24 2.15 1.89 1.54 1.34 1.24 1.16 1.14 1.10 1.04 1.03
0.94 1.36 1.47 1.62 1.81 1.96 2.12 2.20 2.27 2.60 3.08 3.48 3.89 4.26 4.54 4.54 4.69 4.73 4.71 4.57 4.44 4.32 4.12 4.06 3.95 3.71 3.53 3.29 3.04 2.88 2.81 2.56 2.36 2.32 2.24 1.80 1.45 1.15 0.90 0.91 0.93 0.93 0.95
0.96 1.14 1.34 1.58 1.80 1.97 2.17 2.28 2.55 3.18 3.97 4.35 4.67 5.21 5.51 5.32 5.11 4.89 4.81 4.71 4.69 4.69 4.50 4.37 4.09 3.84 3.55 3.27 3.00 2.79 2.69 2.59 2.45 2.26 2.32 2.06 1.67 1.29 1.00 0.85 0.80 0.83 0.91
1.03 1.18 1.37 1.61 1.91 2.20 2.28 2.42 2.89 3.61 4.27 4.73 5.29 5.81 6.03 6.04 5.88 5.40 4.96 4.52 4.18 3.99 3.91 3.84 3.67 3.44 3.16 2.96 2.72 2.51 2.40 2.47 2.35 2.21 2.01 1.87 1.64 1.45 1.20 0.95 0.85 0.83 0.86
1.06 1.20 1.33 1.51 1.70 1.98 2.35 2.59 3.08 3.74 4.40 5.09 5.76 6.13 6.32 6.29 5.87 5.09 4.35 3.90 3.59 3.32 3.11 3.00 2.89 2.75 2.61 2.46 2.38 2.31 2.17 2.11 2.00 1.88 1.78 1.69 1.56 1.35 1.18 1.04 0.92 0.90 0.91
0.98 1.07 1.23 1.31 1.59 1.85 2.12 2.51 2.80 3.42 4.11 4.69 5.18 5.32 5.46 5.39 4.96 4.50 4.01 3.62 3.17 2.68 2.34 2.16 2.05 1.96 1.89 1.89 1.91 1.91 1.85 1.78 1.73 1.66 1.54 1.46 1.44 1.35 1.26 1.13 1.02 1.03 0.99
0.99 1.15 1.36 1.28 1.50 1.74 2.02 2.38 2.77 3.16 3.66 4.16 4.58 4.82 4.93 4.75 4.29 3.87 3.48 3.03 2.56 2.15 1.82 1.64 1.57 1.52 1.50 1.45 1.47 1.49 1.46 1.44 1.45 1.43 1.38 1.35 1.30 1.29 1.28 1.35 1.28 1.09 0.92
0.99 1.04 1.18 1.21 1.41 1.60 1.85 2.18 2.49 2.78 2.98 3.17 3.49 3.72 3.87 3.73 3.40 2.95 2.49 2.21 1.94 1.68 1.46 1.31 1.23 1.12 1.02 1.01 1.06 1.10 1.10 1.10 1.17 1.22 1.26 1.28 1.26 1.23 1.20 1.24 1.30 1.30 1.19
0.88 0.93 1.04 1.15 1.33 1.58 1.81 2.05 2.17 2.31 2.46 2.57 2.62 2.67 2.78 2.68 2.45 2.18 1.90 1.63 1.38 1.18 1.04 0.92 0.83 0.80 0.74 0.74 0.78 0.82 0.83 0.87 0.93 1.00 1.08 1.18 1.25 1.28 1.25 1.25 1.25 1.32 1.36
0.94 0.94 0.99 1.06 1.12 1.21 1.46 1.66 1.74 1.80 1.85 1.88 1.92 1.94 1.95 1.88 1.79 1.63 1.43 1.21 1.05 0.89 0.77 0.65 0.57 0.58 0.60 0.62 0.59 0.61 0.63 0.65 0.71 0.78 0.87 0.97 1.08 1.21 1.27 1.35 1.34 1.30 1.29
1.06 1.00 1.00 0.96 0.97 0.98 1.11 1.29 1.42 1.42 1.46 1.51 1.47 1.41 1.46 1.42 1.34 1.28 1.19 1.05 0.94 0.82 0.71 0.64 0.60 0.57 0.54 0.52 0.54 0.53 0.55 0.59 0.62 0.61 0.66 0.76 0.83 0.93 1.02 1.08 1.12 1.16 1.16
1.06 0.96 0.90 0.81 0.80 0.84 0.87 0.94 1.03 1.04 1.05 1.06 1.06 1.11 1.14 1.15 1.10 1.00 0.90 0.76 0.68 0.63 0.58 0.53 0.53 0.53 0.50 0.49 0.49 0.47 0.45 0.44 0.44 0.45 0.50 0.57 0.61 0.68 0.72 0.77 0.83 0.88 0.93
1.18 1.06 0.91 0.76 0.73 0.77 0.78 0.78 0.81 0.83 0.84 0.79 0.81 0.89 0.91 0.93 0.88 0.78 0.75 0.68 0.57 0.53 0.52 0.48 0.47 0.47 0.46 0.43 0.41 0.41 0.35 0.32 0.33 0.35 0.39 0.44 0.46 0.49 0.50 0.54 0.57 0.63 0.72
1.29 1.10 0.98 0.84 0.75 0.78 0.75 0.74 0.74 0.70 0.70 0.70 0.73 0.79 0.78 0.78 0.76 0.67 0.58 0.54 0.50 0.49 0.50 0.46 0.42 0.35 0.32 0.30 0.33 0.36 0.32 0.28 0.27 0.29 0.31 0.34 0.36 0.38 0.40 0.41 0.44 0.51 0.64
1.21 1.08 1.00 0.97 0.86 0.76 0.69 0.70 0.75 0.73 0.74 0.75 0.73 0.73 0.69 0.67 0.66 0.63 0.57 0.50 0.45 0.42 0.41 0.37 0.35 0.31 0.28 0.28 0.29 0.31 0.29 0.28 0.26 0.24 0.23 0.26 0.30 0.35 0.35 0.35 0.40 0.48 0.60
1.12 1.04 1.00 1.02 0.91 0.80 0.70 0.66 0.72 0.75 0.78 0.79 0.74 0.71 0.68 0.66 0.62 0.59 0.56 0.51 0.45 0.38 0.36 0.33 0.32 0.30 0.26 0.28 0.27 0.26 0.30 0.32 0.32 0.27 0.24 0.24 0.24 0.28 0.30 0.33 0.39 0.47 0.51
1.26 1.24 1.26 1.25 1.12 0.96 0.84 0.79 0.81 0.82 0.82 0.85 0.81 0.78 0.71 0.64 0.60 0.52 0.48 0.47 0.47 0.39 0.35 0.31 0.29 0.32 0.31 0.29 0.25 0.25 0.31 0.34 0.35 0.33 0.30 0.25 0.22 0.28 0.31 0.32 0.34 0.39 0.40
1.52 1.52 1.47 1.35 1.22 1.10 1.01 0.92 0.86 0.89 0.93 0.89 0.83 0.74 0.64 0.56 0.53 0.52 0.49 0.43 0.41 0.39 0.37 0.33 0.31 0.31 0.30 0.29 0.27 0.26 0.28 0.35 0.34 0.33 0.33 0.34 0.33 0.30 0.30 0.26 0.29 0.34 0.38
1.53 1.42 1.33 1.25 1.18 1.08 1.00 0.89 0.83 0.80 0.81 0.76 0.70 0.63 0.59 0.57 0.55 0.54 0.54 0.49 0.43 0.39 0.34 0.33 0.33 0.33 0.32 0.30 0.28 0.27 0.28 0.31 0.27 0.25 0.28 0.28 0.29 0.29 0.32 0.30 0.32 0.35 0.40
1.22 1.21 1.15 1.08 1.01 0.92 0.82 0.76 0.71 0.68 0.65 0.61 0.58 0.52 0.51 0.53 0.55 0.50 0.49 0.46 0.42 0.39 0.32 0.33 0.35 0.35 0.36 0.31 0.28 0.28 0.24 0.26 0.23 0.23 0.24 0.26 0.23 0.21 0.21 0.22 0.31 0.42 0.41
1.02 1.01 1.01 1.00 0.87 0.71 0.64 0.66 0.63 0.57 0.47 0.43 0.47 0.48 0.49 0.49 0.48 0.47 0.48 0.47 0.44 0.42 0.39 0.39 0.40 0.38 0.35 0.32 0.28 0.28 0.25 0.23 0.22 0.22 0.24 0.26 0.21 0.17 0.17 0.21 0.29 0.36 0.35
0.87 0.84 0.79 0.73 0.64 0.58 0.61 0.63 0.60 0.48 0.39 0.40 0.46 0.49 0.48 0.42 0.42 0.48 0.50 0.47 0.44 0.41 0.39 0.40 0.42 0.39 0.37 0.32 0.30 0.29 0.26 0.22 0.21 0.23 0.22 0.23 0.22 0.17 0.18 0.21 0.26 0.28 0.36
0.66 0.67 0.63 0.59 0.58 0.60 0.63 0.61 0.54 0.45 0.43 0.44 0.48 0.47 0.44 0.42 0.42 0.46 0.48 0.48 0.45 0.37 0.36 0.38 0.40 0.36 0.32 0.28 0.24 0.24 0.22 0.20 0.19 0.22 0.22 0.22 0.24 0.25 0.32 0.34 0.30 0.35 0.49
0.54 0.55 0.54 0.53 0.57 0.57 0.55 0.53 0.45 0.44 0.47 0.49 0.48 0.46 0.46 0.44 0.40 0.38 0.37 0.39 0.39 0.35 0.33 0.32 0.31 0.30 0.28 0.22 0.17 0.17 0.19 0.19 0.20 0.22 0.27 0.35 0.39 0.41 0.44 0.48 0.52 0.53 0.53
0.53 0.54 0.53 0.51 0.49 0.48 0.45 0.42 0.40 0.41 0.45 0.45 0.42 0.42 0.43 0.41 0.38 0.32 0.28 0.28 0.25 0.18 0.19 0.18 0.17 0.19 0.19 0.15 0.15 0.16 0.18 0.16 0.17 0.20 0.33 0.49 0.53 0.53 0.52 0.50 0.50 0.52 0.49
0.47 0.50 0.45 0.43 0.40 0.37 0.37 0.37 0.35 0.34 0.40 0.41 0.37 0.34 0.34 0.33 0.29 0.27 0.25 0.18 0.12 0.09 0.08 0.06 0.06 0.08 0.11 0.10 0.08 0.11 0.15 0.15 0.18 0.25 0.44 0.53 0.54 0.54 0.49 0.45 0.41 0.40 0.40